Regional Weather Roundup
Issued by NWS Memphis, TN

Home | Current Version | Previous Version | Text Only | Print | Product List | Glossary On
Versions: 1 2 3 4 5 6 7 8 9 10 11 12 13 14 15 16 17 18 19 20 21 22 23 24 25 26 27 28 29 30 31 32 33 34 35 36 37 38 39 40 41 42 43 44 45 46 47 48 49 50
000
ASUS44 KMEG 230410
RWRMEG
MEMPHIS CWA HOURLY WEATHER ROUNDUP
NATIONAL WEATHER SERVICE MEMPHIS TN
1100 PM CDT MON SEP 22 2014

...WEST TENNESSEE...

CITY           SKY/WX    TMP DP  RH WIND       PRES   REMARKS
MEMPHIS INTL   CLEAR     65  48  54 NE9       30.21R
NWS MEMPHIS      N/A     63 N/A N/A MISG        N/A
JACKSON        CLEAR     56  48  74 NE6       30.22S
LEXINGTON      CLEAR     54  48  82 N5        30.22R
SAVANNAH       CLEAR     52  52 100 CALM      30.21R
DYERSBURG      CLEAR     57  41  54 NE5       30.24R
UNION CITY     CLEAR     52  48  87 CALM      30.23R
PARIS          CLEAR     50  45  81 CALM      30.24S
HUNTINGDON     CLEAR     53  45  74 NE5       30.23S


...EASTERN ARKANSAS...

CITY           SKY/WX    TMP DP  RH WIND       PRES   REMARKS
JONESBORO      CLEAR     59  50  72 NE5       30.23R
WEST MEMPHIS   CLEAR     60  52  74 N5        30.20R
BATESVILLE     CLEAR     55  48  76 CALM      30.24R
NEWPORT        CLEAR     54  50  86 NE5       30.24R
WALNUT RIDGE   CLEAR     57  46  67 N5        30.23S
BLYTHEVILLE    CLEAR     53  50  89 N6        30.23R
SEARCY         CLEAR     62  49  62 NE6       30.24R
STUTTGART      CLEAR     61  52  72 NE7       30.22R
PINE BLUFF     CLEAR     64  53  67 NE8       30.20S
MONTICELLO     CLEAR     62  52  69 NE5       30.17S


...NORTH MISSISSIPPI...

CITY           SKY/WX    TMP DP  RH WIND       PRES   REMARKS
TUPELO         CLEAR     58  52  80 NE8       30.17S
OXFORD         CLEAR     55  54  94 CALM      30.20S
OLIVE BRANCH   CLEAR     61  54  77 NE6       30.21R
TUNICA         CLEAR     59  52  77 N7        30.21R
CLARKSDALE     CLEAR     63  55  77 N6        30.19S
CORINTH          N/A     59  48  67 CALM      30.19S
GRENADA        CLEAR     63  54  72 N6        30.18R
GREENWOOD      CLEAR     60  54  80 N3        30.17R
COLUMBUS       CLEAR     61  54  77 N5        30.15S
STARKVILLE     FAIR      63  52  67 N3        30.15R
GOLDEN TRIANGL FAIR      59  52  77 N7        30.15R


...SOUTHEAST MISSOURI...

CITY           SKY/WX    TMP DP  RH WIND       PRES   REMARKS
WEST PLAINS    CLEAR     52  49  89 CALM      30.27R
POPLAR BLUFF   CLEAR     52  48  86 CALM      30.24R
CAPE GIRARDEAU CLEAR     51  48  89 E3        30.25S


...NORTHWEST ALABAMA...

CITY           SKY/WX    TMP DP  RH WIND       PRES   REMARKS
MUSCLE SHOALS  CLEAR     64  47  53 NE5       30.20R


...MIDDLE TENNESSEE...

CITY           SKY/WX    TMP DP  RH WIND       PRES   REMARKS
NASHVILLE      CLEAR     57  48  72 N8        30.23S
CLARKSVILLE    CLEAR     53  45  74 N5        30.25R
DICKSON        CLEAR     54  45  71 NE7       30.23R
COLUMBIA       CLEAR     54  50  87 CALM      30.20R
LEWISBURG      CLEAR     51  45  80 CALM      30.20F


...WESTERN KENTUCKY...

CITY           SKY/WX    TMP DP  RH WIND       PRES   REMARKS
PADUCAH        CLEAR     52  46  80 CALM      30.24R
FORT CAMPBELL  CLEAR     52  46  78 N5        30.25R


...CENTRAL ARKANSAS...

CITY           SKY/WX    TMP DP  RH WIND       PRES   REMARKS
LITTLE ROCK    PTCLDY    62  51  67 N5        30.22R


SKY/WX REPORTED AS FAIR MEANS FEW OR NO CLOUDS BELOW
12 THOUSAND FEET.



USA.gov is the U.S. government's official web portal to all federal, state and local government web resources and services.